Wetterdaten: Woche 02.01.17 - 08.01.17 (KW1)
Datum Zeit Temp. I. Temp. A. Feuchte I. Feuchte A. Luftdruck Regen Wind Richtung Sonnenschein UV Solar Taupunkt Windchill Windben
02.01.2017 00:00 23,9 C -7,1 C 57 % 94 % 1021,0 hPa 0,0 l/m 1,0 km/h (0 Bft) S 0,00 h 0,0 UV-I 0 W/m -7,9 C -7,1 C 2,0 km/h (1 Bft)
02.01.2017 01:00 23,9 C -6,1 C 58 % 95 % 1020,9 hPa 0,0 l/m 4,2 km/h (1 Bft) S 0,00 h 0,0 UV-I 0 W/m -6,7 C -6,1 C 6,9 km/h (2 Bft)
02.01.2017 02:00 24,1 C -5,2 C 58 % 95 % 1020,9 hPa 0,0 l/m 4,8 km/h (1 Bft) S 0,00 h 0,0 UV-I 0 W/m -5,9 C -5,4 C 7,9 km/h (2 Bft)
02.01.2017 03:00 24,0 C -5,1 C 59 % 95 % 1020,8 hPa 0,0 l/m 4,5 km/h (1 Bft) S 0,00 h 0,0 UV-I 0 W/m -5,8 C -5,3 C 7,7 km/h (2 Bft)
02.01.2017 04:00 24,0 C -5,1 C 59 % 95 % 1020,6 hPa 0,0 l/m 5,5 km/h (1 Bft) S 0,00 h 0,0 UV-I 0 W/m -5,8 C -5,5 C 9,1 km/h (2 Bft)
02.01.2017 05:00 23,8 C -5,1 C 58 % 95 % 1020,5 hPa 0,0 l/m 4,8 km/h (1 Bft) S-SW 0,00 h 0,0 UV-I 0 W/m -5,8 C -5,5 C 7,8 km/h (2 Bft)
02.01.2017 06:00 23,8 C -5,0 C 59 % 95 % 1020,2 hPa 0,0 l/m 4,9 km/h (1 Bft) S 0,00 h 0,0 UV-I 0 W/m -5,6 C -5,1 C 8,5 km/h (2 Bft)
02.01.2017 07:00 23,8 C -4,6 C 59 % 96 % 1020,2 hPa 0,0 l/m 3,7 km/h (1 Bft) S 0,00 h 0,0 UV-I 0 W/m -5,1 C -4,6 C 6,9 km/h (2 Bft)
02.01.2017 08:00 23,6 C -4,2 C 58 % 96 % 1020,4 hPa 0,0 l/m 2,2 km/h (1 Bft) N 0,00 h 0,0 UV-I 5 W/m -4,7 C -4,2 C 2,7 km/h (1 Bft)
02.01.2017 09:00 23,5 C -3,8 C 58 % 96 % 1020,4 hPa 0,0 l/m 1,7 km/h (1 Bft) S-SW 0,00 h 0,0 UV-I 13 W/m -4,3 C -3,8 C 3,8 km/h (1 Bft)
02.01.2017 10:00 23,4 C -3,3 C 59 % 96 % 1020,3 hPa 0,0 l/m 1,4 km/h (1 Bft) S 0,00 h 0,0 UV-I 31 W/m -3,8 C -3,3 C 3,1 km/h (1 Bft)
02.01.2017 11:00 23,4 C -2,7 C 57 % 96 % 1020,1 hPa 0,2 l/m 3,7 km/h (1 Bft) W-SW 0,00 h 0,0 UV-I 43 W/m -3,3 C -2,9 C 7,2 km/h (2 Bft)
02.01.2017 12:00 23,3 C -2,2 C 53 % 96 % 1019,8 hPa 0,4 l/m 2,5 km/h (1 Bft) W-SW 0,00 h 0,0 UV-I 64 W/m -2,8 C -2,2 C 5,5 km/h (1 Bft)
02.01.2017 13:00 23,2 C -1,8 C 51 % 95 % 1019,6 hPa 0,0 l/m 4,5 km/h (1 Bft) W-SW 0,00 h 0,0 UV-I 41 W/m -2,5 C -2,0 C 7,0 km/h (2 Bft)
02.01.2017 14:00 23,0 C -1,6 C 50 % 95 % 1019,8 hPa 0,0 l/m 1,1 km/h (1 Bft) SW 0,00 h 0,0 UV-I 21 W/m -2,3 C -1,6 C 3,1 km/h (1 Bft)
02.01.2017 15:00 23,2 C -1,8 C 51 % 94 % 1020,3 hPa 0,0 l/m 1,3 km/h (1 Bft) SW 0,00 h 0,0 UV-I 8 W/m -2,6 C -1,8 C 3,3 km/h (1 Bft)
02.01.2017 16:00 23,4 C -2,0 C 52 % 94 % 1020,6 hPa 0,0 l/m 2,8 km/h (1 Bft) W-SW 0,00 h 0,0 UV-I 5 W/m -2,8 C -2,1 C 6,1 km/h (2 Bft)
02.01.2017 17:00 23,3 C -2,1 C 53 % 94 % 1021,2 hPa 0,0 l/m 6,5 km/h (2 Bft) W 0,00 h 0,0 UV-I 0 W/m -2,9 C -3,0 C 11,0 km/h (2 Bft)
02.01.2017 18:00 23,4 C -1,9 C 55 % 94 % 1021,6 hPa 0,0 l/m 2,6 km/h (1 Bft) W 0,00 h 0,0 UV-I 0 W/m -2,7 C -1,9 C 5,2 km/h (1 Bft)
02.01.2017 19:00 23,6 C -1,7 C 57 % 94 % 1022,3 hPa 0,0 l/m 0,9 km/h (0 Bft) W 0,00 h 0,0 UV-I 0 W/m -2,6 C -1,7 C 2,6 km/h (1 Bft)
02.01.2017 20:00 23,7 C -1,6 C 58 % 94 % 1022,9 hPa 0,0 l/m 0,6 km/h (0 Bft) NW 0,00 h 0,0 UV-I 0 W/m -2,4 C -1,6 C 1,9 km/h (1 Bft)
02.01.2017 21:00 24,1 C -1,8 C 57 % 94 % 1023,6 hPa 0,0 l/m 0,2 km/h (0 Bft) NW 0,00 h 0,0 UV-I 0 W/m -2,5 C -1,8 C 0,8 km/h (0 Bft)
02.01.2017 22:00 24,0 C -2,8 C 57 % 93 % 1023,9 hPa 0,0 l/m 1,5 km/h (1 Bft) NW 0,00 h 0,0 UV-I 0 W/m -3,8 C -2,8 C 2,9 km/h (1 Bft)
02.01.2017 23:00 24,1 C -4,1 C 57 % 93 % 1024,2 hPa 0,0 l/m 1,8 km/h (1 Bft) NW 0,00 h 0,0 UV-I 0 W/m -5,0 C -4,1 C 3,0 km/h (1 Bft)
03.01.2017 00:00 24,0 C -5,3 C 57 % 93 % 1024,3 hPa 0,0 l/m 0,4 km/h (0 Bft) NW 0,00 h 0,0 UV-I 0 W/m -6,3 C -5,3 C 0,8 km/h (0 Bft)
03.01.2017 01:00 24,0 C -6,8 C 58 % 92 % 1024,5 hPa 0,0 l/m 0,5 km/h (0 Bft) NW 0,00 h 0,0 UV-I 0 W/m -7,9 C -6,8 C 1,0 km/h (0 Bft)
03.01.2017 02:00 24,1 C -7,2 C 58 % 93 % 1024,9 hPa 0,0 l/m 0,1 km/h (0 Bft) NW 0,00 h 0,0 UV-I 0 W/m -8,2 C -7,2 C 0,4 km/h (0 Bft)
03.01.2017 03:00 24,0 C -6,1 C 58 % 95 % 1025,1 hPa 0,0 l/m 1,6 km/h (1 Bft) W-SW 0,00 h 0,0 UV-I 0 W/m -6,8 C -6,1 C 3,2 km/h (1 Bft)
03.01.2017 04:00 23,9 C -3,7 C 58 % 96 % 1024,9 hPa 0,0 l/m 1,5 km/h (1 Bft) S-SW 0,00 h 0,0 UV-I 0 W/m -4,2 C -3,7 C 3,8 km/h (1 Bft)
03.01.2017 05:00 23,8 C -3,0 C 58 % 96 % 1024,9 hPa 0,0 l/m 2,9 km/h (1 Bft) SW 0,00 h 0,0 UV-I 0 W/m -3,5 C -3,0 C 6,6 km/h (2 Bft)
03.01.2017 06:00 23,7 C -2,3 C 58 % 96 % 1025,2 hPa 0,0 l/m 4,7 km/h (1 Bft) W-SW 0,00 h 0,0 UV-I 0 W/m -2,9 C -2,8 C 9,6 km/h (2 Bft)
03.01.2017 07:00 23,6 C -2,1 C 58 % 95 % 1025,3 hPa 0,0 l/m 5,3 km/h (1 Bft) SW 0,00 h 0,0 UV-I 0 W/m -2,8 C -2,8 C 10,1 km/h (2 Bft)
03.01.2017 08:00 23,3 C -1,9 C 58 % 95 % 1025,4 hPa 0,0 l/m 6,1 km/h (2 Bft) W-SW 0,00 h 0,0 UV-I 5 W/m -2,7 C -2,7 C 10,2 km/h (2 Bft)
03.01.2017 09:00 23,3 C -1,8 C 59 % 94 % 1025,6 hPa 0,0 l/m 4,1 km/h (1 Bft) SW 0,00 h 0,0 UV-I 13 W/m -2,6 C -2,0 C 8,4 km/h (2 Bft)
03.01.2017 10:00 23,1 C -1,6 C 58 % 94 % 1026,0 hPa 0,0 l/m 3,6 km/h (1 Bft) W-SW 0,00 h 0,0 UV-I 15 W/m -2,4 C -1,7 C 7,2 km/h (2 Bft)
03.01.2017 11:00 23,3 C -1,1 C 59 % 93 % 1025,6 hPa 0,0 l/m 8,0 km/h (2 Bft) W-SW 0,00 h 0,0 UV-I 28 W/m -2,1 C -3,1 C 12,9 km/h (3 Bft)
03.01.2017 12:00 23,3 C -0,6 C 59 % 91 % 1024,7 hPa 0,0 l/m 10,5 km/h (2 Bft) W-SW 0,00 h 0,4 UV-I 67 W/m -1,8 C -4,5 C 17,6 km/h (3 Bft)
03.01.2017 13:00 23,3 C -0,4 C 59 % 91 % 1024,0 hPa 0,0 l/m 12,7 km/h (3 Bft) W-SW 0,00 h 0,0 UV-I 43 W/m -1,6 C -5,7 C 19,8 km/h (3 Bft)
03.01.2017 14:00 23,4 C -0,5 C 58 % 93 % 1023,3 hPa 0,0 l/m 12,8 km/h (3 Bft) W-SW 0,00 h 0,0 UV-I 20 W/m -1,6 C -6,0 C 20,4 km/h (4 Bft)
03.01.2017 15:00 23,4 C -0,7 C 58 % 94 % 1023,0 hPa 0,0 l/m 10,9 km/h (2 Bft) W-SW 0,00 h 0,0 UV-I 7 W/m -1,6 C -4,8 C 15,3 km/h (3 Bft)
03.01.2017 16:00 23,5 C -0,7 C 57 % 93 % 1022,6 hPa 0,0 l/m 11,7 km/h (2 Bft) W-SW 0,00 h 0,0 UV-I 0 W/m -1,6 C -5,4 C 18,9 km/h (3 Bft)
03.01.2017 17:00 23,7 C -0,7 C 57 % 94 % 1022,0 hPa 0,0 l/m 12,3 km/h (3 Bft) W-SW 0,00 h 0,0 UV-I 0 W/m -1,6 C -5,8 C 19,4 km/h (3 Bft)
03.01.2017 18:00 23,5 C -0,7 C 58 % 93 % 1021,2 hPa 0,0 l/m 13,1 km/h (3 Bft) W-SW 0,00 h 0,0 UV-I 0 W/m -1,7 C -6,3 C 20,8 km/h (4 Bft)
03.01.2017 19:00 23,5 C -0,7 C 58 % 91 % 1020,8 hPa 0,0 l/m 14,9 km/h (3 Bft) W-SW 0,00 h 0,0 UV-I 0 W/m -2,0 C -7,6 C 22,1 km/h (4 Bft)
03.01.2017 20:00 23,6 C -1,0 C 59 % 91 % 1020,1 hPa 0,0 l/m 10,6 km/h (2 Bft) SW 0,00 h 0,0 UV-I 0 W/m -2,3 C -4,8 C 18,0 km/h (3 Bft)
03.01.2017 21:00 23,9 C -1,2 C 59 % 93 % 1019,3 hPa 0,0 l/m 9,5 km/h (2 Bft) SW 0,00 h 0,0 UV-I 0 W/m -2,3 C -4,3 C 16,2 km/h (3 Bft)
03.01.2017 22:00 23,9 C -1,3 C 59 % 94 % 1018,4 hPa 0,2 l/m 9,3 km/h (2 Bft) SW 0,00 h 0,0 UV-I 0 W/m -2,2 C -4,2 C 15,8 km/h (3 Bft)
03.01.2017 23:00 23,8 C -1,5 C 59 % 94 % 1017,5 hPa 0,0 l/m 8,8 km/h (2 Bft) S-SW 0,00 h 0,0 UV-I 0 W/m -2,4 C -3,9 C 15,6 km/h (3 Bft)
04.01.2017 00:00 23,3 C -1,7 C 59 % 94 % 1016,5 hPa 0,0 l/m 9,4 km/h (2 Bft) SW 0,00 h 0,0 UV-I 0 W/m -2,4 C -4,7 C 16,1 km/h (3 Bft)
04.01.2017 01:00 23,1 C -1,7 C 59 % 95 % 1015,6 hPa 0,2 l/m 6,7 km/h (2 Bft) SW 0,00 h 0,0 UV-I 0 W/m -2,4 C -3,0 C 12,6 km/h (3 Bft)
04.01.2017 02:00 23,0 C -1,7 C 59 % 95 % 1015,0 hPa 0,0 l/m 5,9 km/h (2 Bft) SW 0,00 h 0,0 UV-I 0 W/m -2,4 C -2,7 C 11,2 km/h (2 Bft)
04.01.2017 03:00 22,8 C -1,6 C 59 % 95 % 1013,7 hPa 0,0 l/m 14,2 km/h (3 Bft) W-SW 0,00 h 0,0 UV-I 0 W/m -2,3 C -8,1 C 23,8 km/h (4 Bft)
04.01.2017 04:00 22,8 C -1,4 C 59 % 95 % 1012,7 hPa 0,2 l/m 12,9 km/h (3 Bft) W-SW 0,00 h 0,0 UV-I 0 W/m -2,1 C -7,1 C 20,7 km/h (4 Bft)
04.01.2017 05:00 22,7 C -1,4 C 59 % 95 % 1011,6 hPa 0,0 l/m 13,7 km/h (3 Bft) W-SW 0,00 h 0,0 UV-I 0 W/m -2,1 C -7,6 C 22,2 km/h (4 Bft)
04.01.2017 06:00 22,6 C -1,4 C 59 % 95 % 1010,7 hPa 0,0 l/m 11,8 km/h (2 Bft) SW 0,00 h 0,0 UV-I 0 W/m -2,0 C -6,2 C 20,2 km/h (4 Bft)
04.01.2017 07:00 22,6 C -1,3 C 59 % 95 % 1010,0 hPa 0,0 l/m 10,5 km/h (2 Bft) SW 0,00 h 0,0 UV-I 0 W/m -1,9 C -5,1 C 17,6 km/h (3 Bft)
04.01.2017 08:00 22,8 C -1,0 C 60 % 95 % 1009,1 hPa 0,0 l/m 11,4 km/h (2 Bft) SW 0,00 h 0,0 UV-I 6 W/m -1,7 C -5,6 C 19,4 km/h (3 Bft)
04.01.2017 09:00 23,3 C -0,8 C 60 % 95 % 1009,0 hPa 0,0 l/m 14,3 km/h (3 Bft) W-SW 0,00 h 0,0 UV-I 16 W/m -1,5 C -7,3 C 20,9 km/h (4 Bft)
04.01.2017 10:00 23,2 C -0,7 C 57 % 95 % 1008,9 hPa 0,2 l/m 15,2 km/h (3 Bft) W-SW 0,00 h 0,0 UV-I 24 W/m -1,3 C -7,7 C 23,2 km/h (4 Bft)
04.01.2017 11:00 23,2 C -0,3 C 57 % 96 % 1008,6 hPa 0,0 l/m 15,9 km/h (3 Bft) W-SW 0,00 h 0,0 UV-I 45 W/m -1,0 C -7,6 C 24,8 km/h (4 Bft)
04.01.2017 12:00 23,4 C 0,5 C 57 % 94 % 1008,5 hPa 0,0 l/m 14,4 km/h (3 Bft) W 0,50 h 0,7 UV-I 165 W/m -0,4 C -5,8 C 22,3 km/h (4 Bft)
04.01.2017 13:00 23,3 C 0,8 C 56 % 92 % 1008,0 hPa 0,0 l/m 17,3 km/h (3 Bft) W 0,00 h 0,5 UV-I 79 W/m -0,4 C -7,0 C 22,4 km/h (4 Bft)
04.01.2017 14:00 23,3 C 0,9 C 55 % 90 % 1007,9 hPa 0,2 l/m 13,5 km/h (3 Bft) W 0,00 h 0,0 UV-I 48 W/m -0,6 C -4,7 C 20,7 km/h (4 Bft)
04.01.2017 15:00 23,3 C 0,6 C 54 % 91 % 1008,4 hPa 0,0 l/m 10,4 km/h (2 Bft) W 0,00 h 0,0 UV-I 29 W/m -0,8 C -3,0 C 16,7 km/h (3 Bft)
04.01.2017 16:00 23,3 C 0,7 C 54 % 88 % 1008,2 hPa 0,0 l/m 10,6 km/h (2 Bft) W-SW 0,00 h 0,0 UV-I 12 W/m -1,1 C -2,9 C 16,8 km/h (3 Bft)
04.01.2017 17:00 23,4 C 0,4 C 55 % 91 % 1008,1 hPa 0,0 l/m 11,3 km/h (2 Bft) W 0,00 h 0,0 UV-I 0 W/m -0,9 C -3,8 C 18,1 km/h (3 Bft)
04.01.2017 18:00 23,6 C 0,2 C 55 % 94 % 1008,8 hPa 0,0 l/m 10,2 km/h (2 Bft) W 0,00 h 0,0 UV-I 0 W/m -0,7 C -3,3 C 16,0 km/h (3 Bft)
04.01.2017 19:00 23,5 C 0,6 C 55 % 90 % 1009,6 hPa 0,0 l/m 13,1 km/h (3 Bft) W-NW 0,00 h 0,0 UV-I 0 W/m -0,9 C -4,9 C 19,6 km/h (3 Bft)
04.01.2017 20:00 23,6 C 0,3 C 57 % 88 % 1010,2 hPa 0,0 l/m 11,1 km/h (2 Bft) W-NW 0,00 h 0,0 UV-I 0 W/m -1,4 C -3,9 C 17,0 km/h (3 Bft)
04.01.2017 21:00 24,1 C -0,1 C 57 % 86 % 1010,7 hPa 0,0 l/m 11,6 km/h (2 Bft) W-NW 0,00 h 0,0 UV-I 0 W/m -2,1 C -4,6 C 18,0 km/h (3 Bft)
04.01.2017 22:00 24,2 C -0,2 C 57 % 85 % 1011,7 hPa 0,0 l/m 10,6 km/h (2 Bft) W-NW 0,00 h 0,0 UV-I 0 W/m -2,4 C -3,9 C 16,0 km/h (3 Bft)
04.01.2017 23:00 24,1 C -0,7 C 57 % 87 % 1012,2 hPa 0,0 l/m 8,6 km/h (2 Bft) W-NW 0,00 h 0,0 UV-I 0 W/m -2,6 C -2,9 C 13,6 km/h (3 Bft)
05.01.2017 00:00 23,7 C -2,0 C 58 % 93 % 1012,7 hPa 0,8 l/m 13,2 km/h (3 Bft) NW 0,00 h 0,0 UV-I 0 W/m -3,0 C -7,9 C 20,4 km/h (4 Bft)
05.01.2017 01:00 23,3 C -2,9 C 58 % 89 % 1013,5 hPa 0,0 l/m 13,3 km/h (3 Bft) NW 0,00 h 0,0 UV-I 0 W/m -4,4 C -9,0 C 21,2 km/h (4 Bft)
05.01.2017 02:00 23,2 C -3,8 C 58 % 91 % 1014,7 hPa 0,0 l/m 6,7 km/h (2 Bft) NW 0,00 h 0,0 UV-I 0 W/m -5,1 C -5,3 C 11,0 km/h (2 Bft)
05.01.2017 03:00 23,1 C -4,7 C 58 % 90 % 1015,6 hPa 0,2 l/m 5,5 km/h (1 Bft) NW 0,00 h 0,0 UV-I 0 W/m -6,1 C -5,1 C 8,5 km/h (2 Bft)
05.01.2017 04:00 22,9 C -4,4 C 58 % 91 % 1016,5 hPa 0,0 l/m 7,5 km/h (2 Bft) NW 0,00 h 0,0 UV-I 0 W/m -5,7 C -6,3 C 11,3 km/h (2 Bft)
05.01.2017 05:00 22,8 C -4,2 C 58 % 91 % 1017,6 hPa 0,0 l/m 6,6 km/h (2 Bft) NW 0,00 h 0,0 UV-I 0 W/m -5,5 C -5,5 C 10,8 km/h (2 Bft)
05.01.2017 06:00 23,1 C -4,0 C 58 % 91 % 1018,8 hPa 0,0 l/m 6,8 km/h (2 Bft) NW 0,00 h 0,0 UV-I 0 W/m -5,2 C -5,2 C 10,9 km/h (2 Bft)
05.01.2017 07:00 23,1 C -4,4 C 59 % 91 % 1019,8 hPa 0,0 l/m 4,1 km/h (1 Bft) N-NW 0,00 h 0,0 UV-I 0 W/m -5,6 C -4,7 C 7,5 km/h (2 Bft)
05.01.2017 08:00 23,2 C -4,6 C 59 % 91 % 1020,9 hPa 0,0 l/m 7,0 km/h (2 Bft) N-NW 0,00 h 0,0 UV-I 20 W/m -5,8 C -5,7 C 11,1 km/h (2 Bft)
05.01.2017 09:00 23,3 C -3,9 C 59 % 89 % 1022,2 hPa 0,0 l/m 6,3 km/h (2 Bft) N-NW 0,00 h 0,0 UV-I 51 W/m -5,4 C -5,1 C 10,1 km/h (2 Bft)
05.01.2017 10:00 22,8 C -3,1 C 55 % 86 % 1023,6 hPa 0,2 l/m 6,9 km/h (2 Bft) N 0,12 h 0,5 UV-I 115 W/m -5,1 C -4,3 C 11,3 km/h (2 Bft)
05.01.2017 11:00 23,0 C -1,7 C 57 % 80 % 1024,2 hPa 0,0 l/m 9,3 km/h (2 Bft) N-NO 0,55 h 0,6 UV-I 240 W/m -4,7 C -4,5 C 14,5 km/h (3 Bft)
05.01.2017 12:00 22,9 C -1,6 C 54 % 75 % 1024,6 hPa 0,0 l/m 13,2 km/h (3 Bft) N 0,42 h 0,8 UV-I 191 W/m -5,4 C -7,4 C 19,2 km/h (3 Bft)
05.01.2017 13:00 22,9 C -1,7 C 53 % 76 % 1025,3 hPa 0,0 l/m 11,5 km/h (2 Bft) N 0,35 h 0,7 UV-I 138 W/m -5,5 C -6,4 C 18,5 km/h (3 Bft)
05.01.2017 14:00 23,1 C -2,7 C 51 % 76 % 1026,2 hPa 0,0 l/m 8,6 km/h (2 Bft) N 0,08 h 0,5 UV-I 84 W/m -6,3 C -5,3 C 14,0 km/h (3 Bft)
05.01.2017 15:00 23,1 C -3,5 C 50 % 78 % 1027,5 hPa 0,0 l/m 8,6 km/h (2 Bft) N 0,00 h 0,0 UV-I 31 W/m -6,7 C -6,0 C 13,6 km/h (3 Bft)
05.01.2017 16:00 23,1 C -4,4 C 49 % 83 % 1028,8 hPa 0,0 l/m 7,9 km/h (2 Bft) N 0,00 h 0,0 UV-I 8 W/m -6,9 C -6,5 C 11,9 km/h (2 Bft)
05.01.2017 17:00 23,0 C -5,2 C 48 % 86 % 1030,1 hPa 0,0 l/m 7,3 km/h (2 Bft) N 0,00 h 0,0 UV-I 0 W/m -7,2 C -7,0 C 11,7 km/h (2 Bft)
05.01.2017 18:00 23,2 C -5,3 C 48 % 85 % 1031,3 hPa 0,0 l/m 6,6 km/h (2 Bft) N 0,00 h 0,0 UV-I 0 W/m -7,4 C -6,3 C 10,3 km/h (2 Bft)
05.01.2017 19:00 23,5 C -5,9 C 50 % 86 % 1032,2 hPa 0,0 l/m 6,4 km/h (2 Bft) N 0,00 h 0,0 UV-I 0 W/m -7,9 C -6,8 C 10,2 km/h (2 Bft)
05.01.2017 20:00 23,6 C -7,1 C 51 % 86 % 1033,3 hPa 0,0 l/m 6,7 km/h (2 Bft) N-NW 0,00 h 0,0 UV-I 0 W/m -9,0 C -7,9 C 9,8 km/h (2 Bft)
05.01.2017 21:00 23,6 C -8,1 C 52 % 87 % 1034,3 hPa 0,0 l/m 5,4 km/h (1 Bft) N 0,00 h 0,0 UV-I 0 W/m -9,8 C -8,2 C 7,6 km/h (2 Bft)
05.01.2017 22:00 23,7 C -8,8 C 53 % 88 % 1035,1 hPa 0,0 l/m 4,2 km/h (1 Bft) N 0,00 h 0,0 UV-I 0 W/m -10,4 C -8,9 C 6,0 km/h (2 Bft)
05.01.2017 23:00 23,6 C -9,5 C 53 % 89 % 1035,8 hPa 0,0 l/m 4,1 km/h (1 Bft) N 0,00 h 0,0 UV-I 0 W/m -10,9 C -9,6 C 6,2 km/h (2 Bft)
06.01.2017 00:00 23,4 C -10,3 C 54 % 90 % 1036,6 hPa 0,0 l/m 1,0 km/h (0 Bft) O-SO 0,00 h 0,0 UV-I 0 W/m -11,7 C -10,3 C 2,0 km/h (1 Bft)
06.01.2017 01:00 23,2 C -11,1 C 54 % 90 % 1037,1 hPa 0,0 l/m 0,5 km/h (0 Bft) NO 0,00 h 0,0 UV-I 0 W/m -12,5 C -11,1 C 1,2 km/h (1 Bft)
06.01.2017 02:00 23,0 C -12,0 C 54 % 89 % 1037,6 hPa 0,0 l/m 2,6 km/h (1 Bft) N-NW 0,00 h 0,0 UV-I 0 W/m -13,4 C -12,0 C 4,1 km/h (1 Bft)
06.01.2017 03:00 22,8 C -13,1 C 54 % 89 % 1038,2 hPa 0,0 l/m 0,8 km/h (0 Bft) NW 0,00 h 0,0 UV-I 0 W/m -14,5 C -13,1 C 1,8 km/h (1 Bft)
06.01.2017 04:00 22,7 C -14,0 C 54 % 89 % 1038,7 hPa 0,0 l/m 0,7 km/h (0 Bft) SO 0,00 h 0,0 UV-I 0 W/m -15,4 C -14,0 C 1,3 km/h (1 Bft)
06.01.2017 05:00 22,6 C -14,7 C 54 % 88 % 1039,2 hPa 0,0 l/m 1,7 km/h (1 Bft) O-NO 0,00 h 0,0 UV-I 0 W/m -16,2 C -14,7 C 3,0 km/h (1 Bft)
06.01.2017 06:00 22,4 C -15,3 C 54 % 88 % 1040,0 hPa 0,0 l/m 0,3 km/h (0 Bft) O-NO 0,00 h 0,0 UV-I 0 W/m -16,8 C -15,3 C 1,0 km/h (0 Bft)
06.01.2017 07:00 22,5 C -15,0 C 54 % 90 % 1040,6 hPa 0,0 l/m 0,9 km/h (0 Bft) SO 0,00 h 0,0 UV-I 0 W/m -16,3 C -15,0 C 1,7 km/h (1 Bft)
06.01.2017 08:00 22,9 C -13,8 C 55 % 91 % 1041,1 hPa 0,0 l/m 0,5 km/h (0 Bft) S-SO 0,00 h 0,0 UV-I 26 W/m -14,9 C -13,8 C 0,9 km/h (0 Bft)
06.01.2017 09:00 23,1 C -11,2 C 55 % 90 % 1041,5 hPa 0,0 l/m 0,4 km/h (0 Bft) S-SO 0,33 h 0,0 UV-I 130 W/m -12,5 C -11,2 C 0,9 km/h (0 Bft)
06.01.2017 10:00 23,2 C -7,6 C 55 % 84 % 1041,8 hPa 0,0 l/m 0,0 km/h (0 Bft) N 1,00 h 0,6 UV-I 240 W/m -9,9 C -7,6 C 0,1 km/h (0 Bft)
06.01.2017 11:00 23,3 C -5,7 C 55 % 78 % 1041,7 hPa 0,0 l/m 3,7 km/h (1 Bft) NW 0,93 h 0,9 UV-I 283 W/m -8,9 C -5,8 C 6,4 km/h (2 Bft)
06.01.2017 12:00 23,4 C -5,2 C 54 % 74 % 1041,4 hPa 0,0 l/m 2,2 km/h (1 Bft) N 0,83 h 0,9 UV-I 255 W/m -9,0 C -5,2 C 5,1 km/h (1 Bft)
06.01.2017 13:00 23,4 C -5,8 C 53 % 74 % 1040,9 hPa 0,0 l/m 5,3 km/h (1 Bft) N-NW 0,35 h 0,8 UV-I 124 W/m -9,6 C -6,3 C 8,7 km/h (2 Bft)
06.01.2017 14:00 23,9 C -5,5 C 53 % 71 % 1040,8 hPa 0,0 l/m 3,4 km/h (1 Bft) N 0,35 h 0,6 UV-I 147 W/m -9,9 C -5,7 C 6,1 km/h (2 Bft)
06.01.2017 15:00 24,3 C -6,1 C 53 % 70 % 1041,1 hPa 0,0 l/m 4,8 km/h (1 Bft) NW 0,00 h 0,0 UV-I 63 W/m -10,6 C -6,4 C 7,9 km/h (2 Bft)
06.01.2017 16:00 24,1 C -7,4 C 54 % 76 % 1041,5 hPa 0,0 l/m 5,2 km/h (1 Bft) NW 0,00 h 0,0 UV-I 13 W/m -10,9 C -7,4 C 7,9 km/h (2 Bft)
06.01.2017 17:00 23,8 C -9,1 C 54 % 80 % 1041,7 hPa 0,0 l/m 1,3 km/h (1 Bft) N-NW 0,00 h 0,0 UV-I 0 W/m -11,9 C -9,1 C 2,5 km/h (1 Bft)
06.01.2017 18:00 23,7 C -10,8 C 56 % 83 % 1041,8 hPa 0,0 l/m 0,5 km/h (0 Bft) O-NO 0,00 h 0,0 UV-I 0 W/m -13,2 C -10,8 C 1,4 km/h (1 Bft)
06.01.2017 19:00 23,8 C -12,8 C 57 % 84 % 1041,8 hPa 0,0 l/m 0,7 km/h (0 Bft) O-SO 0,00 h 0,0 UV-I 0 W/m -14,9 C -12,8 C 1,6 km/h (1 Bft)
06.01.2017 20:00 23,8 C -14,3 C 58 % 85 % 1041,9 hPa 0,0 l/m 0,1 km/h (0 Bft) O-NO 0,00 h 0,0 UV-I 0 W/m -16,2 C -14,3 C 0,5 km/h (0 Bft)
06.01.2017 21:00 24,1 C -15,4 C 57 % 86 % 1041,9 hPa 0,0 l/m 0,1 km/h (0 Bft) O-NO 0,00 h 0,0 UV-I 0 W/m -17,2 C -15,4 C 0,3 km/h (0 Bft)
06.01.2017 22:00 23,9 C -16,5 C 57 % 85 % 1042,1 hPa 0,0 l/m 0,0 km/h (0 Bft) N 0,00 h 0,0 UV-I 0 W/m -18,4 C -16,5 C 0,0 km/h (0 Bft)
06.01.2017 23:00 23,7 C -17,3 C 57 % 85 % 1042,1 hPa 0,0 l/m 0,0 km/h (0 Bft) N 0,00 h 0,0 UV-I 0 W/m -19,2 C -17,3 C 0,0 km/h (0 Bft)
07.01.2017 00:00 23,3 C -18,0 C 57 % 85 % 1041,5 hPa 0,0 l/m 0,0 km/h (0 Bft) N 0,00 h 0,0 UV-I 0 W/m -19,8 C -18,0 C 0,0 km/h (0 Bft)
07.01.2017 01:00 23,1 C -18,5 C 57 % 86 % 1041,0 hPa 0,0 l/m 0,0 km/h (0 Bft) N 0,00 h 0,0 UV-I 0 W/m -20,3 C -18,5 C 0,0 km/h (0 Bft)
07.01.2017 02:00 22,9 C -19,0 C 57 % 86 % 1040,9 hPa 0,0 l/m 0,0 km/h (0 Bft) N 0,00 h 0,0 UV-I 0 W/m -20,7 C -19,0 C 0,0 km/h (0 Bft)
07.01.2017 03:00 22,8 C -19,2 C 57 % 86 % 1040,7 hPa 0,0 l/m 0,2 km/h (0 Bft) O-NO 0,00 h 0,0 UV-I 0 W/m -21,0 C -19,2 C 0,5 km/h (0 Bft)
07.01.2017 04:00 22,7 C -18,3 C 57 % 88 % 1040,4 hPa 0,0 l/m 0,0 km/h (0 Bft) N 0,00 h 0,0 UV-I 0 W/m -19,8 C -18,3 C 0,0 km/h (0 Bft)
07.01.2017 05:00 22,6 C -17,0 C 57 % 89 % 1039,9 hPa 0,0 l/m 0,1 km/h (0 Bft) N-NO 0,00 h 0,0 UV-I 0 W/m -18,4 C -17,0 C 0,4 km/h (0 Bft)
07.01.2017 06:00 22,5 C -16,2 C 57 % 89 % 1039,4 hPa 0,0 l/m 0,0 km/h (0 Bft) N 0,00 h 0,0 UV-I 0 W/m -17,6 C -16,2 C 0,2 km/h (0 Bft)
07.01.2017 07:00 22,7 C -16,2 C 58 % 88 % 1039,3 hPa 0,0 l/m 0,0 km/h (0 Bft) N 0,00 h 0,0 UV-I 0 W/m -17,7 C -16,2 C 0,1 km/h (0 Bft)
07.01.2017 08:00 22,8 C -15,5 C 58 % 89 % 1039,2 hPa 0,0 l/m 0,0 km/h (0 Bft) N 0,00 h 0,0 UV-I 18 W/m -16,9 C -15,5 C 0,1 km/h (0 Bft)
07.01.2017 09:00 22,9 C -14,2 C 58 % 89 % 1038,8 hPa 0,0 l/m 0,0 km/h (0 Bft) O-NO 0,00 h 0,0 UV-I 54 W/m -15,5 C -14,2 C 0,2 km/h (0 Bft)
07.01.2017 10:00 22,9 C -12,3 C 58 % 89 % 1038,4 hPa 0,0 l/m 0,2 km/h (0 Bft) S 0,00 h 0,5 UV-I 101 W/m -13,7 C -12,3 C 0,4 km/h (0 Bft)
07.01.2017 11:00 22,8 C -10,5 C 57 % 88 % 1037,7 hPa 0,0 l/m 4,7 km/h (1 Bft) S 0,00 h 0,6 UV-I 111 W/m -12,0 C -10,9 C 7,4 km/h (2 Bft)
07.01.2017 12:00 23,0 C -9,7 C 57 % 85 % 1036,7 hPa 0,0 l/m 6,4 km/h (2 Bft) S 0,08 h 0,7 UV-I 136 W/m -11,7 C -10,9 C 9,6 km/h (2 Bft)
07.01.2017 13:00 23,1 C -9,6 C 56 % 84 % 1035,8 hPa 0,0 l/m 8,0 km/h (2 Bft) S 0,03 h 0,6 UV-I 109 W/m -11,8 C -11,8 C 11,7 km/h (2 Bft)
07.01.2017 14:00 23,0 C -9,2 C 55 % 83 % 1035,1 hPa 0,0 l/m 8,0 km/h (2 Bft) S 0,00 h 0,5 UV-I 77 W/m -11,5 C -11,5 C 12,0 km/h (2 Bft)
07.01.2017 15:00 22,9 C -8,9 C 54 % 83 % 1034,9 hPa 0,0 l/m 6,7 km/h (2 Bft) S 0,00 h 0,0 UV-I 29 W/m -11,3 C -10,2 C 10,3 km/h (2 Bft)
07.01.2017 16:00 22,7 C -8,8 C 54 % 84 % 1034,2 hPa 0,0 l/m 5,3 km/h (1 Bft) S 0,00 h 0,0 UV-I 8 W/m -11,1 C -9,2 C 8,1 km/h (2 Bft)
07.01.2017 17:00 23,0 C -8,9 C 54 % 84 % 1033,9 hPa 0,0 l/m 3,4 km/h (1 Bft) S 0,00 h 0,0 UV-I 0 W/m -11,1 C -8,9 C 5,4 km/h (1 Bft)
07.01.2017 18:00 23,2 C -9,0 C 55 % 86 % 1033,7 hPa 0,0 l/m 4,9 km/h (1 Bft) S 0,00 h 0,0 UV-I 0 W/m -10,9 C -9,3 C 7,7 km/h (2 Bft)
07.01.2017 19:00 23,2 C -9,1 C 57 % 88 % 1032,8 hPa 0,0 l/m 7,0 km/h (2 Bft) S 0,00 h 0,0 UV-I 0 W/m -10,7 C -10,5 C 10,7 km/h (2 Bft)
07.01.2017 20:00 23,3 C -8,9 C 57 % 89 % 1032,2 hPa 0,0 l/m 7,1 km/h (2 Bft) S 0,00 h 0,0 UV-I 0 W/m -10,4 C -10,4 C 11,0 km/h (2 Bft)
07.01.2017 21:00 23,5 C -8,9 C 58 % 90 % 1031,7 hPa 0,0 l/m 6,2 km/h (2 Bft) S-SW 0,00 h 0,0 UV-I 0 W/m -10,3 C -9,6 C 9,9 km/h (2 Bft)
07.01.2017 22:00 23,6 C -8,8 C 58 % 90 % 1031,4 hPa 0,0 l/m 6,8 km/h (2 Bft) SW 0,00 h 0,0 UV-I 0 W/m -10,2 C -10,0 C 10,5 km/h (2 Bft)
07.01.2017 23:00 23,5 C -8,8 C 58 % 90 % 1030,6 hPa 0,0 l/m 7,0 km/h (2 Bft) S-SW 0,00 h 0,0 UV-I 0 W/m -10,1 C -10,1 C 10,9 km/h (2 Bft)
08.01.2017 00:00 23,1 C -8,6 C 58 % 90 % 1029,8 hPa 0,0 l/m 4,3 km/h (1 Bft) S-SW 0,00 h 0,0 UV-I 0 W/m -10,0 C -8,8 C 7,1 km/h (2 Bft)
08.01.2017 01:00 22,8 C -8,3 C 58 % 91 % 1029,4 hPa 0,0 l/m 2,7 km/h (1 Bft) S-SW 0,00 h 0,0 UV-I 0 W/m -9,6 C -8,3 C 4,5 km/h (1 Bft)
08.01.2017 02:00 22,6 C -8,2 C 58 % 91 % 1029,1 hPa 0,2 l/m 1,6 km/h (1 Bft) S-SO 0,00 h 0,0 UV-I 0 W/m -9,3 C -8,2 C 3,3 km/h (1 Bft)
08.01.2017 03:00 22,5 C -7,9 C 58 % 91 % 1028,8 hPa 0,0 l/m 1,2 km/h (1 Bft) S-SO 0,00 h 0,0 UV-I 0 W/m -9,0 C -7,9 C 2,6 km/h (1 Bft)
08.01.2017 04:00 22,4 C -7,6 C 58 % 92 % 1028,9 hPa 0,0 l/m 0,5 km/h (0 Bft) S-SO 0,00 h 0,0 UV-I 0 W/m -8,7 C -7,6 C 1,2 km/h (1 Bft)
08.01.2017 05:00 22,4 C -7,3 C 58 % 92 % 1028,6 hPa 0,0 l/m 0,1 km/h (0 Bft) SW 0,00 h 0,0 UV-I 0 W/m -8,4 C -7,3 C 0,5 km/h (0 Bft)
08.01.2017 06:00 22,3 C -7,1 C 58 % 92 % 1028,7 hPa 0,2 l/m 0,0 km/h (0 Bft) N 0,00 h 0,0 UV-I 0 W/m -8,2 C -7,1 C 0,1 km/h (0 Bft)
08.01.2017 07:00 22,4 C -6,8 C 59 % 93 % 1029,1 hPa 0,0 l/m 0,0 km/h (0 Bft) N 0,00 h 0,0 UV-I 0 W/m -7,8 C -6,8 C 0,2 km/h (0 Bft)
08.01.2017 08:00 22,5 C -6,6 C 59 % 92 % 1029,9 hPa 0,0 l/m 0,1 km/h (0 Bft) O-SO 0,00 h 0,0 UV-I 11 W/m -7,6 C -6,6 C 0,3 km/h (0 Bft)
08.01.2017 09:00 22,9 C -6,0 C 58 % 93 % 1030,2 hPa 0,0 l/m 0,1 km/h (0 Bft) SW 0,00 h 0,0 UV-I 33 W/m -7,0 C -6,0 C 0,2 km/h (0 Bft)
08.01.2017 10:00 22,9 C -5,1 C 58 % 93 % 1030,5 hPa 0,2 l/m 0,0 km/h (0 Bft) N 0,00 h 0,0 UV-I 39 W/m -6,1 C -5,1 C 0,0 km/h (0 Bft)
08.01.2017 11:00 22,8 C -4,5 C 57 % 92 % 1030,6 hPa 0,0 l/m 0,0 km/h (0 Bft) N 0,00 h 0,0 UV-I 81 W/m -5,6 C -4,5 C 0,0 km/h (0 Bft)
08.01.2017 12:00 22,6 C -3,4 C 56 % 90 % 1030,6 hPa 0,0 l/m 0,0 km/h (0 Bft) N 0,00 h 0,0 UV-I 73 W/m -4,8 C -3,4 C 0,0 km/h (0 Bft)
08.01.2017 13:00 22,4 C -3,0 C 55 % 90 % 1030,3 hPa 0,0 l/m 0,0 km/h (0 Bft) N 0,00 h 0,0 UV-I 60 W/m -4,4 C -3,0 C 0,0 km/h (0 Bft)
08.01.2017 14:00 22,4 C -2,7 C 55 % 90 % 1030,8 hPa 0,0 l/m 0,0 km/h (0 Bft) N 0,00 h 0,0 UV-I 29 W/m -4,0 C -2,7 C 0,0 km/h (0 Bft)
08.01.2017 15:00 22,7 C -2,6 C 56 % 91 % 1031,0 hPa 0,0 l/m 0,0 km/h (0 Bft) N 0,00 h 0,0 UV-I 14 W/m -3,9 C -2,6 C 0,1 km/h (0 Bft)
08.01.2017 16:00 22,9 C -2,6 C 56 % 92 % 1031,4 hPa 0,0 l/m 0,0 km/h (0 Bft) N 0,00 h 0,0 UV-I 5 W/m -3,7 C -2,6 C 0,0 km/h (0 Bft)
08.01.2017 17:00 23,3 C -2,9 C 55 % 92 % 1031,6 hPa 0,0 l/m 0,0 km/h (0 Bft) N 0,00 h 0,0 UV-I 0 W/m -4,0 C -2,9 C 0,0 km/h (0 Bft)
08.01.2017 18:00 23,4 C -3,0 C 55 % 93 % 1031,7 hPa 0,0 l/m 0,0 km/h (0 Bft) N 0,00 h 0,0 UV-I 0 W/m -4,0 C -3,0 C 0,0 km/h (0 Bft)
08.01.2017 19:00 23,5 C -2,8 C 56 % 94 % 1031,9 hPa 0,0 l/m 0,0 km/h (0 Bft) N 0,00 h 0,0 UV-I 0 W/m -3,7 C -2,8 C 0,0 km/h (0 Bft)
08.01.2017 20:00 23,3 C -2,6 C 56 % 94 % 1032,0 hPa 0,0 l/m 0,0 km/h (0 Bft) N 0,00 h 0,0 UV-I 0 W/m -3,4 C -2,6 C 0,0 km/h (0 Bft)
08.01.2017 21:00 23,4 C -2,6 C 56 % 94 % 1032,1 hPa 0,0 l/m 0,0 km/h (0 Bft) N 0,00 h 0,0 UV-I 0 W/m -3,4 C -2,6 C 0,0 km/h (0 Bft)
08.01.2017 22:00 23,4 C -2,6 C 56 % 94 % 1032,0 hPa 0,0 l/m 0,0 km/h (0 Bft) N 0,00 h 0,0 UV-I 0 W/m -3,4 C -2,6 C 0,0 km/h (0 Bft)
08.01.2017 23:00 23,5 C -2,6 C 56 % 94 % 1031,9 hPa 0,0 l/m 0,0 km/h (0 Bft) N 0,00 h 0,0 UV-I 0 W/m -3,4 C -2,6 C 0,0 km/h (0 Bft)
Min-Datum _ 08.01.17 07.01.17 05.01.17 06.01.17 04.01.17 - 02.01.17 - - - - 07.01.17 07.01.17 02.01.17
_ Min-Zeit 06:42 03:13 09:58 14:41 13:22 - 00:00 - - - - 03:13 19:57 00:00
Minimum _ 22,2 C -19,3 C 44 % 68 % 1007,8 hPa - 0,0 km/h (0 Bft) - - - - -21,0 C -19,9 C 0,0 km/h (0 Bft)
Max-Datum _ 04.01.17 04.01.17 02.01.17 02.01.17 06.01.17 05.01.17 04.01.17 - 04.01.17 04.01.17 05.01.17 04.01.17 04.01.17 05.01.17
_ Max-Zeit 22:49 13:45 03:08 07:06 22:48 00:11 13:23 - 12:09 12:25 11:24 12:23 14:33 00:06
Maximum _ 24,3 C 1,1 C 60 % 96 % 1042,3 hPa 0,8 l/m 29,0 km/h
W (5 Bft)
- 0,02 h 1,0 UV-I 446 W/m -0,2 C 0,9 C 40,2 km/h
W-NW (6 Bft)
Durchschnitt _ 23,3 C -5,6 C 56 % 90 % 1026,7 hPa #3,4 l/m 5,0 km/h (1 Bft) W-SW #5:56 h 0,6 UV-I 65 W/m -7,0 C -7,0 C 8,2 km/h (2 Bft)